User: anonymous   Login
Location: Bushey
(51.6333°N, 0.3667°W)
Time: 17:15:31
(UTC+00:00)
Language:

Cosmos 2333 - Orbit

View from above orbital plane
View from above orbital plane
View from above satellite
View from above satellite

Ground track
Ground track

The orbit data is extracted from the following two-line orbital elements,

1 24297U 96051A   21129.22496820  .00000293  00000-0  18138-3 0  9991
2 24297  70.9035 300.9202 0025230 232.8380 127.0437 14.13353451272784
Epoch (UTC): 09 May 2021 05:23:57
Eccentricity: 0.0025230
inclination: 70.9035°
perigee height: 829 km
apogee height: 866 km
right ascension of ascending node: 300.9202°
argument of perigee: 232.8380°
revolutions per day: 14.13353451
mean anomaly at epoch: 127.0437°
orbit number at epoch: 27278

The dashed part of the orbit path shows where the satellite is in the earth's shadow,  

DLR